Lapse_Rate
5.8 6.1 6.0 5.9 6.0 5.9 6.1 6.2 6.2 6.6 6.3 6.3 6.6 6.6 6.6 6.5 6.4 6.7 6.7 6.8 6.4 6.3 6.4 6.3 6.4 6.7 7.1 7.4 7.9 8.1 8.0 7.8 7.9 8.1 7.9 7.5 6.9 6.6 6.5 6.5 6.4 6.3 6.1 5.9
5.3 5.7 5.8 5.9 6.0 6.1 6.2 6.1 6.2 6.2 6.3 6.2 6.7 6.3 6.2 6.1 6.4 6.7 6.7 6.2 6.0 6.1 6.0 6.0 6.1 6.4 6.8 7.3 7.6 8.0 8.0 7.9 7.9 7.9 7.7 7.4 7.0 6.8 6.7 6.7 6.7 6.5 6.2 6.0
5.2 5.6 5.6 5.7 6.0 6.1 6.2 5.8 5.9 6.0 6.1 6.4 6.3 5.9 6.1 6.1 6.1 6.2 6.1 6.0 6.1 5.9 5.8 6.0 6.1 6.2 6.4 7.0 7.4 7.8 7.9 7.9 7.9 7.8 7.6 7.6 7.4 7.1 6.8 6.6 6.4 6.4 6.3 6.1
5.5 5.6 5.5 5.7 5.8 5.8 5.9 6.0 5.9 5.9 6.0 6.0 6.0 5.2 5.4 5.9 6.2 6.2 6.2 6.1 6.1 6.0 5.9 6.1 6.1 6.1 6.2 6.6 6.9 7.2 7.6 7.8 7.8 7.8 7.7 7.5 7.3 7.0 6.7 6.6 6.6 6.6 6.5 6.4
5.8 5.6 5.7 5.8 5.7 5.7 5.8 5.9 5.9 5.8 5.7 5.3 6.0 5.8 5.2 5.6 6.0 5.6 5.8 6.1 6.1 6.2 6.1 6.0 6.2 6.3 6.6 6.9 6.8 7.0 7.4 7.7 7.8 7.8 7.9 7.6 7.4 7.0 6.7 6.8 6.7 6.7 6.7 6.6
6.0 5.8 5.8 6.0 6.0 6.0 5.8 5.9 5.9 5.8 5.6 5.0 6.4 6.3 5.5 5.7 5.6 5.5 5.8 5.9 6.1 6.1 6.2 6.2 6.1 6.1 6.4 6.6 7.0 7.2 7.2 7.4 7.6 7.7 7.7 7.7 7.5 7.1 6.9 6.8 6.8 6.6 6.6 6.6
6.0 6.0 6.3 5.9 6.1 6.0 5.9 6.0 5.8 5.5 4.7 5.0 6.6 6.4 5.8 5.6 5.3 5.6 5.7 5.7 5.9 6.2 6.3 6.2 6.3 6.4 6.4 6.5 6.7 6.6 6.9 7.1 7.2 7.4 7.5 7.6 7.6 7.2 7.1 6.8 6.9 6.8 6.8 6.9
5.8 6.1 6.0 6.0 6.1 6.1 6.1 5.9 5.8 5.7 5.0 5.5 6.4 6.0 5.8 5.7 5.2 5.3 5.8 5.7 6.0 6.0 6.2 6.4 6.4 6.2 6.3 6.5 6.4 6.2 6.3 6.8 6.9 7.0 7.2 7.2 7.4 7.4 7.3 7.0 6.9 6.9 6.8 6.8
5.9 6.1 6.0 6.0 6.0 6.0 6.0 6.1 6.0 6.1 6.3 6.2 6.6 6.3 5.9 5.8 4.7 5.3 5.8 5.9 6.0 6.1 6.2 6.2 6.3 6.5 6.3 6.2 6.4 6.4 6.3 6.3 6.7 6.9 6.8 6.9 7.1 7.3 7.2 7.0 6.8 7.0 6.9 6.8
5.4 5.7 6.1 6.1 6.0 6.2 6.3 6.2 6.2 6.2 5.7 6.1 6.3 6.3 6.2 5.9 4.7 5.4 5.9 6.2 6.1 6.0 6.1 6.2 6.1 6.2 6.2 6.3 6.2 6.1 6.2 6.4 6.4 6.6 6.8 6.8 6.8 6.8 7.0 7.0 6.9 7.0 7.1 6.9
6.0 5.6 6.0 6.2 6.3 6.4 6.4 6.3 6.3 6.3 6.4 5.3 5.3 5.6 6.0 6.1 5.5 5.6 5.9 6.1 6.1 6.0 6.1 6.2 6.1 6.0 6.0 6.0 6.1 6.2 6.1 6.1 6.2 6.5 6.6 6.7 6.7 6.4 6.5 6.9 7.0 7.0 7.1 7.1
5.9 5.7 5.9 6.4 6.3 6.4 6.3 6.2 6.2 6.3 6.4 6.4 6.8 5.4 5.4 5.8 5.8 5.6 5.4 5.5 5.8 6.1 6.2 6.2 6.2 6.0 5.8 5.8 5.6 5.7 6.0 6.0 6.0 6.1 6.0 6.1 6.5 6.5 6.5 6.5 6.7 6.8 7.0 6.9
5.7 5.5 5.7 6.2 6.1 6.3 6.0 5.9 5.8 5.9 6.0 6.4 6.0 5.5 5.5 5.8 5.9 5.2 4.9 5.1 5.5 5.7 6.0 6.0 5.7 5.5 5.5 5.7 5.5 5.4 5.4 5.5 5.7 5.8 5.9 6.1 6.1 6.2 6.3 6.3 6.3 6.4 6.5 6.7
5.5 5.7 5.9 5.8 5.6 5.3 5.5 5.6 6.0 5.9 5.6 6.1 6.8 6.9 6.4 6.2 5.5 5.0 4.8 4.9 5.2 5.3 5.3 5.1 5.1 5.2 5.3 5.3 5.3 5.2 5.2 5.2 5.3 5.4 5.4 5.5 5.6 5.9 6.1 6.3 6.2 6.2 6.3 6.5
5.1 4.9 5.4 5.6 5.8 5.8 5.5 5.5 5.7 6.0 6.0 5.5 6.6 6.9 6.1 5.0 4.6 4.6 4.5 4.5 4.7 5.0 5.2 5.3 5.1 5.1 5.1 5.1 5.1 5.1 5.1 5.2 5.1 5.1 5.1 5.3 5.4 5.5 5.7 5.9 6.0 6.1 6.2 6.2
4.6 4.6 4.8 4.9 5.5 5.6 5.6 5.9 5.9 5.8 5.8 5.5 5.6 5.8 5.4 4.8 4.5 4.3 4.8 4.9 4.5 4.2 4.5 4.9 5.2 4.9 4.8 4.8 4.9 5.1 5.1 5.0 5.1 5.2 5.0 5.2 5.2 5.2 5.3 5.4 5.6 5.8 5.8 6.0
4.3 4.2 4.0 4.2 4.9 5.1 5.6 5.0 5.5 5.7 5.2 5.2 5.3 4.4 4.1 4.4 4.4 4.4 4.5 4.8 4.7 4.4 3.8 3.7 4.4 5.0 4.7 4.6 4.5 4.6 4.7 4.8 4.8 4.8 5.0 5.0 5.1 5.1 5.0 5.1 5.3 5.4 5.6 5.8
3.8 4.1 3.8 3.8 4.5 4.8 4.2 4.4 4.7 4.9 4.2 4.0 3.7 3.8 3.8 3.7 3.5 3.5 3.8 3.8 4.2 4.1 3.8 3.7 3.6 3.8 4.4 4.5 4.5 4.5 4.6 4.7 4.7 4.7 4.7 4.9 4.9 5.0 5.1 5.0 5.0 5.1 5.2 5.4
4.2 4.0 3.7 4.2 4.4 5.1 4.8 4.8 4.5 3.9 3.9 3.9 3.5 3.4 3.4 3.4 3.4 3.6 3.9 3.8 3.7 3.5 3.5 3.5 3.5 3.6 3.7 4.0 4.3 4.3 4.4 4.4 4.4 4.5 4.6 4.6 4.8 4.8 4.9 5.0 5.0 5.0 5.1 5.2
4.3 4.4 4.1 4.5 4.5 4.8 3.7 4.1 4.8 4.6 4.4 3.7 3.4 3.4 3.5 3.5 3.7 3.7 4.1 4.2 4.2 4.0 3.9 3.9 4.0 3.9 3.8 3.9 4.0 4.2 4.3 4.3 4.4 4.4 4.5 4.5 4.5 4.7 4.8 4.8 4.9 5.1 5.1 5.2
4.3 4.4 4.2 4.3 4.4 4.7 4.1 4.2 5.3 5.3 4.4 4.0 3.6 3.3 3.5 3.5 3.5 3.6 3.9 4.2 4.3 4.3 4.2 4.2 4.0 3.8 4.0 3.9 3.8 3.9 4.0 4.2 4.3 4.2 4.2 4.4 4.5 4.6 4.7 4.8 4.8 4.8 4.9 5.0
4.2 4.4 4.5 4.5 4.6 4.5 4.4 4.2 4.2 4.9 4.7 4.2 4.0 3.6 3.6 3.8 4.0 4.3 4.4 4.3 4.2 4.3 4.3 4.2 4.1 4.0 3.7 3.8 3.5 3.5 3.6 3.5 3.7 4.0 4.3 4.4 4.3 4.5 4.7 4.8 4.9 5.0 4.9 4.8
4.2 4.4 4.3 4.3 4.6 5.3 5.7 5.0 5.1 4.6 3.9 4.2 4.6 4.7 4.6 4.5 4.2 4.0 3.9 4.0 4.1 4.2 4.2 4.2 4.2 4.3 4.3 4.0 3.8 3.5 3.5 3.5 3.4 3.4 3.6 3.8 4.0 4.1 4.1 4.5 4.8 5.0 5.1 5.0
4.8 6.0 5.0 4.9 5.3 5.3 5.2 6.0 5.8 5.2 5.3 5.1 5.0 4.9 4.9 4.9 4.9 4.7 4.6 4.6 4.6 4.4 4.2 4.0 3.9 3.9 4.1 4.1 4.0 4.0 3.7 3.5 3.4 3.3 3.3 3.3 3.4 3.7 4.0 3.9 4.0 4.3 4.9 5.2
6.4 6.0 6.0 5.5 6.1 5.5 6.1 5.9 5.7 6.5 6.6 6.2 6.3 6.2 6.0 5.8 5.7 5.6 5.4 5.3 5.0 4.7 4.6 4.4 4.0 3.8 4.0 4.0 4.0 3.9 3.8 3.9 3.9 3.7 3.6 3.5 3.4 3.4 3.5 3.8 3.8 3.8 3.8 4.0
7.9 7.5 6.5 6.2 7.0 6.6 6.7 6.9 6.8 7.1 7.2 7.5 7.4 7.6 7.9 7.2 6.6 6.4 6.3 6.0 5.6 5.1 4.9 4.5 4.2 4.0 3.9 4.0 4.2 4.4 4.3 4.2 4.0 3.8 3.6 3.6 3.7 3.7 3.5 3.4 3.7 3.9 3.7 3.7
Wind_Speed
4 3 4 6 4 4 1 3 5 8 1 3 5 8 13 10 7 8 9 9 9 9 9 10 14 15 14 14 17 18 16 14 12 8 6 4 7 4 4 9 15 17 19 19
3 5 7 4 1 2 2 4 7 7 5 5 6 9 7 9 6 5 7 1 7 6 3 7 10 13 15 15 16 17 17 15 13 10 8 4 4 3 4 9 13 17 18 19
5 5 4 0 3 3 3 3 2 2 6 5 3 7 8 6 10 14 10 5 8 8 8 2 6 12 12 13 15 17 17 16 14 13 5 2 2 1 3 4 5 8 18 19
4 1 2 1 3 2 4 1 2 3 5 3 5 2 6 4 9 10 10 10 9 10 8 9 8 4 10 15 13 15 16 16 13 13 12 12 10 8 5 5 4 6 15 15
7 3 1 2 3 2 5 3 3 1 1 3 4 5 3 4 6 7 9 10 9 9 8 9 9 7 8 4 11 12 14 15 14 14 13 10 6 5 4 4 8 7 6 14
8 2 3 5 2 2 3 4 4 2 3 2 6 5 4 2 4 3 5 9 9 10 10 9 7 7 6 6 5 8 11 12 12 13 9 13 10 7 6 5 6 5 5 6
6 2 1 1 3 2 3 4 3 3 3 5 2 4 6 5 6 7 8 9 10 10 10 13 14 9 9 6 5 6 9 8 9 12 12 10 12 11 11 9 7 6 6 4
2 3 2 1 1 2 3 5 4 2 2 4 3 4 4 6 8 7 8 8 11 12 11 13 13 17 13 9 4 2 4 6 8 9 10 10 10 9 8 8 6 8 8 9
6 3 2 2 2 3 3 0 3 1 2 2 2 4 6 3 9 8 9 12 10 11 11 13 14 15 14 19 14 4 4 4 6 8 7 8 8 8 10 9 7 8 8 8
4 4 3 2 2 2 3 2 3 3 1 3 2 4 4 4 8 5 8 9 9 10 12 12 12 13 13 13 11 15 10 7 6 8 7 8 10 10 9 6 11 9 9 10
5 1 6 3 2 4 1 2 1 2 4 3 1 3 7 12 7 7 8 8 8 9 9 10 11 11 11 13 11 10 12 9 8 7 6 8 8 9 9 10 11 12 11 10
3 1 4 6 1 1 2 1 3 4 5 1 4 2 7 5 7 9 8 7 7 7 8 8 8 8 11 12 11 9 12 12 10 7 6 8 7 9 10 12 13 12 12 10
4 2 3 4 5 6 5 3 4 0 2 2 3 4 3 7 10 7 8 7 7 8 9 9 10 11 10 12 12 11 8 12 13 12 8 8 6 7 10 12 12 11 12 14
3 3 5 5 2 5 6 5 3 3 1 2 4 6 9 10 9 9 8 6 6 7 7 7 7 7 8 10 12 12 10 10 13 12 9 8 8 7 7 9 10 11 13 14
4 3 4 6 7 4 5 6 7 5 6 4 3 6 7 6 6 7 7 7 7 7 7 6 7 7 8 10 12 12 11 12 13 12 8 7 8 8 7 7 7 9 9 12
6 4 6 5 9 10 11 11 12 11 8 9 6 2 8 6 6 10 9 13 8 8 9 8 9 9 10 11 12 13 11 13 12 13 11 7 7 8 8 8 8 7 8 10
3 1 4 5 6 7 2 11 9 14 12 3 6 3 6 8 10 12 6 10 9 7 8 10 11 11 11 10 10 12 11 9 10 11 13 8 7 10 12 11 9 8 8 8
4 3 2 4 5 2 5 12 12 15 13 11 8 9 9 8 7 9 5 8 9 6 6 7 6 11 12 8 13 10 10 8 8 10 12 7 10 11 12 12 12 10 6 7
11 4 2 2 1 3 9 9 7 4 6 10 10 9 8 7 4 4 5 6 4 5 8 7 8 9 7 11 12 13 14 12 8 12 10 9 11 12 12 11 13 11 10 9
5 6 5 1 0 2 2 10 18 5 4 9 11 10 9 7 7 4 8 8 11 9 8 10 11 11 12 11 9 10 9 12 15 13 10 10 11 11 13 13 12 9 11 12
4 2 5 6 4 1 3 12 9 1 6 12 7 8 7 6 4 7 10 10 8 11 14 13 13 9 8 9 11 7 12 11 13 8 12 15 10 10 11 11 10 11 12 11
3 2 3 3 2 5 11 5 6 6 5 6 3 3 5 7 11 13 13 12 13 14 10 11 11 11 10 8 8 12 11 11 9 10 13 12 13 10 10 10 10 12 10 8
2 2 2 5 4 10 3 2 6 4 4 4 5 7 9 11 11 11 10 12 12 13 14 13 10 11 9 8 10 12 11 9 11 11 12 11 13 13 12 9 9 8 9 8
5 4 2 5 4 7 11 13 3 1 4 6 5 7 10 12 14 14 14 14 14 13 15 14 15 15 15 11 10 13 15 13 12 13 12 11 11 12 11 8 7 7 7 8
5 4 5 6 9 6 7 4 7 9 6 7 7 7 10 12 13 14 15 16 15 15 14 14 14 13 13 14 15 14 13 14 13 13 12 12 11 11 10 10 9 8 8 10
5 6 4 6 8 5 7 6 5 6 7 11 14 17 15 11 13 14 14 15 15 16 16 15 15 16 16 16 17 15 15 14 15 15 12 11 11 10 10 10 8 12 14 18
Wind_Direction
225 73 249 243 206 198 307 329 303 284 220 277 253 281 287 288 289 299 265 243 222 214 222 211 187 180 169 165 170 175 175 178 174 183 179 178 196 190 208 204 207 208 202 199
333 258 235 237 244 39 342 301 288 291 332 16 299 310 326 14 356 357 340 226 266 251 279 199 177 172 174 169 170 174 179 173 181 185 189 174 168 191 190 203 213 209 201 196
186 252 158 127 321 319 281 235 280 276 331 331 22 19 10 347 35 35 19 37 40 55 23 342 217 177 171 169 170 176 180 180 180 181 163 132 128 163 186 204 210 209 199 198
255 194 140 5 284 231 278 357 18 7 48 280 75 206 340 344 32 29 17 21 21 32 28 30 19 299 198 187 175 172 177 179 181 170 181 191 201 201 207 197 201 208 203 200
258 176 219 283 266 0 239 327 273 235 311 14 328 95 244 17 38 19 16 16 15 19 33 30 12 331 219 218 179 174 172 178 179 183 183 188 194 202 184 180 196 206 209 206
232 181 182 208 280 224 321 331 341 104 103 359 239 124 252 188 137 41 23 23 23 16 11 10 14 10 353 192 185 165 168 179 174 181 179 189 191 183 187 198 201 204 208 213
327 221 72 88 339 9 43 44 359 27 19 224 207 58 216 179 131 123 86 48 27 17 19 16 6 3 10 2 189 188 177 183 181 183 186 187 194 194 198 200 205 195 208 209
319 328 135 154 196 195 234 142 148 227 192 266 8 169 210 160 106 76 75 72 46 32 22 22 17 21 4 11 42 165 206 202 184 187 197 195 196 203 206 203 198 211 217 219
2 322 323 45 359 97 325 5 188 194 296 63 213 31 17 142 77 53 61 60 45 36 28 23 23 25 17 23 8 342 176 220 217 214 201 203 201 200 207 205 207 214 218 219
297 309 259 285 6 294 187 252 42 11 278 282 291 179 204 195 87 69 60 58 45 37 32 25 24 21 21 17 11 25 4 293 231 213 214 215 211 211 209 197 217 215 220 219
16 60 294 12 211 218 44 312 216 156 154 175 309 13 341 104 121 94 66 61 52 44 37 30 25 18 16 15 12 13 13 10 347 301 253 215 216 213 208 210 221 224 225 217
51 275 271 240 258 187 176 14 116 119 302 328 143 34 332 81 90 79 61 58 50 47 33 26 20 19 18 10 4 357 4 359 344 321 296 252 229 209 211 219 225 223 227 221
338 331 322 329 347 3 54 4 49 262 87 252 117 166 357 46 52 42 67 51 47 41 32 23 18 21 14 7 356 353 347 353 346 343 339 336 282 248 225 224 224 219 223 228
171 253 189 210 169 331 313 320 3 97 104 286 238 130 32 39 44 23 12 19 56 49 41 31 19 9 5 1 354 347 341 347 348 345 346 1 347 307 257 248 232 222 220 226
48 277 296 301 299 296 259 266 281 257 230 200 274 351 67 37 39 0 350 1 29 26 21 26 20 3 355 353 351 346 342 344 344 339 335 346 343 341 335 299 266 248 227 228
359 293 330 297 285 281 277 271 262 242 255 263 229 150 359 10 23 14 24 36 29 15 10 7 11 0 352 342 342 338 334 339 337 336 330 324 343 338 330 325 315 284 259 246
292 300 352 269 350 306 17 339 316 78 43 41 61 344 338 5 16 348 18 19 4 353 14 6 349 343 335 327 326 322 320 324 328 330 325 320 337 339 332 322 316 308 287 267
251 330 324 279 349 253 119 25 63 87 58 46 38 17 19 1 342 318 40 12 348 356 350 332 316 321 318 317 324 311 317 308 312 323 323 320 338 332 328 322 320 310 289 276
205 179 276 243 263 252 19 11 342 322 46 28 20 348 329 319 318 328 329 343 315 315 314 302 307 302 298 315 312 314 316 317 312 320 311 318 328 322 319 316 315 310 310 298
172 191 162 80 336 278 37 347 336 316 165 357 337 327 324 337 346 297 322 327 322 312 310 316 314 306 304 301 297 304 309 315 312 310 302 312 314 311 308 308 304 302 305 300
355 110 232 251 234 229 5 354 330 255 333 329 331 323 342 340 254 283 307 306 298 302 301 299 302 287 280 291 298 287 302 295 295 293 311 306 299 294 295 301 303 304 303 307
10 354 335 356 296 246 356 5 42 272 285 312 333 289 283 283 299 302 301 301 302 300 295 293 290 290 287 282 282 291 291 281 283 295 301 293 300 295 299 292 295 298 298 299
276 136 229 191 242 316 1 321 254 255 278 296 297 296 303 310 305 299 298 305 303 302 303 301 283 285 281 271 281 281 281 283 283 286 286 286 293 294 294 286 288 296 299 301
315 326 282 1 295 298 302 305 3 275 286 297 297 324 334 340 343 341 336 332 331 337 335 340 339 329 326 329 325 316 308 294 285 284 279 282 284 285 285 285 280 284 290 295
229 325 255 270 281 301 296 306 311 330 353 344 352 7 349 345 338 333 330 329 328 325 326 325 318 315 317 317 316 317 319 323 324 315 302 293 289 281 280 275 278 275 280 278
186 221 185 262 257 236 262 284 310 354 357 5 3 350 347 347 336 333 325 322 320 316 315 309 305 305 309 313 311 315 310 304 304 304 305 311 310 299 286 282 282 277 270 272